Location: ??????
(42.0089°N, 44.3281°E)
Time: 00:48:43
(UTC+00:00)

Cosmos 2251 Rocket - Pass Details

Date: 02 June 2022
Orbit: 764 x 791 km, 74.0° (Epoch: 03 July)

Event Time Altitude Azimuth Distance (km) Brightness Sun altitude
Rises 23:10:37 0° 331° (NNW) 3,255 7.2 -19.1°
Reaches altitude 10° 23:13:11 10° 322° (NW) 2,327 6.2 -18.8°
Maximum altitude 23:17:52 33° 259° (W) 1,280 4.3 -18.3°
Enters shadow 23:18:54 31° 236° (WSW) 1,350 4.3 -18.2°
